Location: Chavannes
(47.1090°N, 0.2226°W)
Time: 13:55:40
(UTC+00:00)

Meteor 2-10 Rocket - Pass Details

Date: 16 October 2021
Orbit: 733 x 885 km, 81.2° (Epoch: 02 December)

Event Time Altitude Azimuth Distance (km) Brightness Sun altitude
Rises 19:00:31 0° 167° (SSE) 3,448 6.7 -19.3°
Reaches altitude 10° 19:03:06 10° 160° (SSE) 2,499 5.9 -19.7°
Enters shadow 19:03:48 13° 157° (SSE) 2,257 5.6 -19.9°
Exits shadow 19:09:22 36° 67° (ENE) 1,304 4.2 -20.8°
Drops below altitude 10° 19:13:26 10° 25° (NNE) 2,431 5.9 -21.5°
Sets 19:15:55 0° 18° (NNE) 3,343 6.7 -21.9°
